Weather in Mersa Matruh

Egypt     31°19′23″N   27°16′01″E
temp.,
°C
wind,
m/s
gust,
m/s
humid.,
%
clouds,
%
prec.,
mm/h
press.,
hPa
HPBL,
m
14 may, fri
fri1423:00+20e33620 0.0 101535
02:00+19ese22610 0.0 101412
05:00+18e22630 0.0 101412
08:00+22ne22430 0.0 1016326
11:00+26ne43320 0.0 1017712
14:00+27nne42311 0.0 1016817
17:00+24ne55440 0.0 1015425
20:00+20ne46730 0.0 1015226
15 may, sat
sat1523:00+19ene35800 0.0 1015123
02:00+19ene33820 0.0 101448
05:00+18e33820 0.0 101422
08:00+22e23560 0.0 1015298
11:00+27ene32350 0.0 1014700
14:00+29ne64320 0.0 1013739
17:00+25ene55445 0.0 1012274
20:00+21ene47660 0.0 1012166
16 may, sun
sun1623:00+21ese456290 0.0 101174
02:00+21se3351100 0.0 100927
05:00+21ssw22455 0.0 100911
08:00+23nw77530 0.0 1011466
11:00+25nw77495 0.0 1012807
14:00+24nw88505 0.0 1011882
17:00+21nw89594 0.0 1011820
20:00+19nw79745 0.0 1012633
17 may, mon
mon1723:00+19nw7107647 0.0 1012475
02:00+18nw711775 0.0 1012370
05:00+18nw6107975 0.0 1012255
08:00+21nnw78655 0.0 1013878
11:00+23nnw77545 0.0 10141070
14:00+24nnw775396 0.0 10141065
17:00+22nw77644 0.0 1014789
20:00+19nw57777 0.0 1015504
18 may, tue
tue1823:00+19nw57780 0.0 1015210
02:00+18nw458813 0.0 101499
05:00+18nw34927 0.0 101462
08:00+21nnw447092 0.0 1015496
11:00+26nnw44440 0.0 1015849
14:00+26nnw654341 0.0 1014818
17:00+24nw67545 0.0 1014525
20:00+20nw46801 0.0 1015178